STARLINK-1826 (46723 NORAD) Tracking and Keplerian Element Data

This shows tracking and keplerian element data for the satellite.

Feedback or suggestion? Click here.




ElementValue
Catalog46723
NameSTARLINK-1826
Epoch Orbit656
Epoch Day331.16668981
Epoch Year2020
RAAN279.0872
Inclination53.0548
Eccentricity9.7E-05
Argument of Perigee70.641
Mean Anonmoly58.3149
Mean Motion15.62800673
Decay Rate-0.00080285
L11 46723U 20073BF 20331.16668981 -.00080285 00000-0 -87805-3 0 9994
L22 46723 53.0548 279.0872 0000970 70.6410 58.3149 15.62800673 6563

Live tracking and technical data element details for STARLINK-1826 (NORAD 46723). STARLINK-1826 can be tracked NOW for your location showing map with azimuth and elevation plus other details from your city location.

Track the satellite on the map from your city or location and see movement details for azimuth, elevation, latitude, longitude, range, height, and movement on the map or in text.







IsCatalogInMostPopularTable: catalog: 46723, numindb: 10
Update: records affected: 1



GetName: 46723 STARLINK-1826

Hit Count: updated at: Thu, 26 Nov 2020 21:29:22 GMT